Temp
9 9 10 10 10 10 10 10 10 9 9 9 9 9 9 9 9 9 8 8 8 8 8 9 9 9 9 8 8 8 8 7 6 6 6 6 6 5 6 5 6 6 5 5 5
9 9 10 10 10 10 10 10 10 9 9 9 9 9 9 9 9 9 9 8 8 8 8 8 9 9 9 8 8 8 7 6 6 6 6 5 5 5 5 5 5 5 5 4 4
9 10 10 10 10 10 10 10 10 9 9 9 8 8 8 9 8 9 9 8 8 8 8 8 8 8 8 7 7 7 6 5 6 6 5 6 5 5 5 4 4 3 3 3 3
10 10 10 10 10 10 10 10 10 9 8 8 8 8 8 8 8 8 8 8 8 8 8 8 8 8 8 7 7 7 6 6 6 6 6 6 6 4 4 4 3 3 3 2 2
10 10 10 10 11 10 10 10 9 9 8 8 8 8 8 8 8 8 8 8 8 8 8 8 7 8 7 7 7 7 6 6 6 5 5 5 5 5 4 3 2 2 1 1 1
10 10 10 10 10 10 10 9 9 9 8 8 8 8 8 8 7 7 7 7 7 8 8 7 7 7 7 7 7 7 6 6 4 5 5 4 4 4 3 3 2 1 1 0 0
10 10 10 10 10 10 10 9 9 8 8 8 8 7 7 7 7 7 7 7 7 7 7 7 7 7 7 7 7 6 7 5 5 5 5 5 3 3 2 1 0 -0 0 -0 -0
10 10 10 10 10 10 9 9 8 8 8 8 8 7 8 7 7 7 6 7 7 7 7 7 7 7 6 6 6 6 5 5 4 4 4 3 2 2 1 -0 -0 -1 -2 -2 -2
10 10 10 10 10 9 9 8 8 8 8 8 8 8 8 8 7 7 7 7 7 7 7 7 7 7 6 6 5 5 6 5 4 4 3 3 2 1 1 -1 -1 -2 -3 -3 -3
10 10 10 9 9 9 9 8 8 8 8 8 8 8 8 8 8 7 7 7 7 7 7 8 8 8 7 6 7 6 6 5 4 4 4 3 3 2 1 -1 -2 -3 -4 -4 -4
10 10 9 9 9 8 8 8 8 8 8 8 8 8 8 8 8 8 8 8 7 7 7 8 7 8 7 7 6 6 5 5 4 3 2 3 2 1 -1 -3 -4 -4 -4 -4 -5
10 10 9 9 9 8 8 8 8 8 8 8 7 8 8 8 8 8 8 8 7 7 7 7 8 7 6 6 6 5 5 4 4 3 1 0 -1 -2 -3 -4 -5 -5 -5 -6 -6
10 10 9 9 8 8 8 8 8 8 8 7 7 7 7 7 7 8 8 8 7 7 7 8 6 6 6 6 6 5 5 4 2 2 0 -1 -2 -3 -5 -5 -6 -6 -7 -7 -7
10 10 9 9 9 8 8 8 8 8 8 7 7 7 7 8 8 8 7 8 8 7 7 7 6 5 6 6 6 6 5 5 4 2 1 -0 -2 -2 -5 -6 -6 -7 -7 -7 -6
10 10 9 9 9 9 8 8 8 8 7 7 7 7 7 8 8 7 7 8 7 7 7 6 5 5 6 6 5 4 5 5 3 2 0 -1 -3 -3 -4 -6 -7 -7 -7 -7 -7
10 10 9 9 9 9 8 8 8 8 6 7 7 7 7 7 7 7 7 7 7 7 6 6 5 5 5 5 5 4 5 4 3 1 -0 0 -1 -4 -4 -6 -7 -7 -7 -7 -7
10 10 10 9 9 9 8 8 8 8 6 6 7 7 7 7 6 6 7 7 7 6 6 5 5 5 5 5 4 4 5 3 2 1 1 -0 -2 -2 -5 -6 -7 -7 -7 -8 -8
9 10 9 9 9 9 8 8 8 7 7 7 7 7 7 7 6 6 6 6 6 6 6 5 4 4 4 4 3 3 2 3 2 1 -1 -1 -2 -4 -4 -7 -8 -8 -8 -8 -8
9 9 9 9 9 9 9 9 8 8 7 7 7 7 7 6 6 6 6 6 5 5 5 5 4 4 4 3 3 3 1 1 -1 -2 -4 -2 -3 -4 -6 -8 -8 -8 -8 -8 -9
9 9 9 9 9 9 9 9 9 8 7 7 7 7 6 6 6 6 6 5 5 5 5 4 4 4 3 3 3 2 1 0 -0 -1 -2 -3 -3 -4 -6 -7 -7 -8 -8 -9 -9
9 9 9 9 9 9 9 9 8 8 7 7 7 7 6 6 6 6 6 5 5 4 4 4 4 4 3 3 2 1 0 -1 -1 -2 -3 -4 -3 -5 -6 -7 -8 -8 -9 -9 -10
9 9 9 9 9 9 9 9 8 8 7 7 7 6 6 6 6 5 5 5 4 4 4 4 4 4 3 3 2 1 -0 -1 -2 -3 -4 -5 -5 -5 -7 -7 -8 -9 -9 -10 -10
8 9 8 8 8 9 9 9 8 8 7 7 6 6 6 6 6 5 5 5 4 4 4 4 4 3 3 2 1 1 -1 -2 -3 -5 -5 -6 -4 -5 -7 -7 -8 -10 -10 -10 -11
8 8 8 8 8 8 8 8 8 8 7 7 6 6 6 6 5 5 5 4 4 4 4 3 3 3 3 2 1 0 -1 -2 -3 -5 -4 -4 -4 -6 -7 -8 -9 -10 -10 -11 -11
8 8 8 8 8 8 8 8 8 8 7 7 6 6 6 5 5 5 5 4 4 4 4 3 4 4 3 2 2 1 -0 -1 -2 -4 -5 -4 -6 -7 -8 -9 -10 -10 -11 -11 -11
7 7 8 8 8 8 8 8 7 7 7 7 6 6 6 5 5 5 5 5 5 4 4 3 3 3 3 3 1 1 0 -0 -2 -3 -5 -6 -6 -8 -9 -10 -10 -10 -11 -11 -11
7 7 8 8 8 8 8 7 7 7 7 7 6 6 5 5 5 5 5 5 5 4 4 4 3 2 2 2 1 0 -0 -1 -2 -4 -5 -6 -7 -8 -9 -10 -10 -10 -11 -11 -11
Height
3161 3162 3164 3166 3166 3166 3166 3167 3167 3167 3168 3168 3168 3169 3169 3169 3170 3170 3171 3172 3173 3173 3174 3175 3176 3178 3179 3181 3183 3184 3185 3187 3189 3190 3190 3190 3189 3189 3189 3190 3190 3190 3189 3189 3189
3162 3164 3166 3167 3168 3168 3168 3168 3168 3168 3168 3169 3169 3170 3170 3171 3172 3172 3173 3173 3174 3175 3177 3178 3178 3179 3181 3181 3183 3185 3187 3189 3191 3191 3191 3191 3191 3192 3192 3191 3190 3189 3189 3188 3188
3163 3165 3167 3168 3169 3169 3169 3169 3169 3169 3170 3170 3171 3171 3172 3173 3175 3174 3174 3175 3176 3177 3177 3178 3179 3180 3182 3183 3185 3186 3188 3191 3191 3192 3192 3193 3192 3192 3191 3190 3189 3188 3187 3185 3184
3164 3166 3167 3168 3169 3170 3170 3170 3170 3170 3171 3171 3171 3172 3173 3174 3178 3176 3177 3177 3177 3178 3179 3179 3180 3182 3182 3184 3186 3186 3189 3191 3191 3192 3193 3192 3191 3189 3188 3187 3185 3184 3185 3184 3182
3165 3167 3168 3168 3169 3170 3171 3171 3171 3172 3172 3172 3173 3174 3175 3176 3177 3179 3179 3179 3180 3181 3181 3182 3183 3184 3184 3186 3187 3189 3190 3191 3192 3191 3191 3190 3189 3188 3187 3185 3184 3184 3183 3181 3179
3166 3167 3168 3168 3169 3171 3171 3172 3173 3173 3174 3174 3175 3176 3177 3180 3180 3180 3181 3182 3182 3183 3183 3183 3184 3185 3185 3186 3188 3189 3189 3189 3190 3191 3190 3190 3188 3187 3186 3185 3184 3182 3180 3179 3177
3166 3167 3168 3168 3170 3171 3172 3173 3174 3174 3175 3176 3177 3178 3179 3180 3181 3182 3183 3183 3184 3184 3184 3184 3185 3186 3186 3188 3189 3189 3190 3191 3191 3191 3190 3188 3187 3185 3184 3182 3181 3180 3179 3176 3173
3167 3168 3168 3170 3171 3172 3173 3175 3175 3176 3177 3178 3178 3178 3180 3181 3182 3183 3184 3184 3184 3184 3185 3185 3186 3187 3187 3187 3189 3190 3191 3190 3190 3190 3190 3188 3183 3182 3181 3179 3179 3177 3175 3172 3169
3167 3168 3169 3171 3172 3173 3175 3176 3178 3179 3180 3180 3182 3182 3183 3184 3184 3185 3186 3186 3185 3186 3186 3186 3188 3189 3190 3190 3191 3191 3191 3191 3190 3188 3188 3188 3183 3180 3179 3177 3176 3174 3172 3169 3167
3169 3170 3170 3172 3173 3174 3176 3178 3180 3181 3182 3182 3184 3187 3187 3187 3187 3187 3187 3188 3187 3187 3188 3188 3188 3189 3190 3191 3192 3191 3191 3190 3188 3187 3185 3182 3180 3177 3176 3174 3173 3171 3168 3166 3162
3170 3171 3172 3174 3176 3177 3179 3181 3185 3186 3185 3185 3188 3187 3188 3188 3188 3188 3189 3189 3189 3190 3190 3189 3190 3190 3190 3190 3190 3190 3189 3187 3185 3183 3182 3179 3178 3176 3174 3172 3171 3168 3167 3163 3159
3172 3173 3175 3176 3178 3180 3181 3183 3184 3188 3186 3188 3189 3189 3189 3189 3189 3190 3191 3192 3191 3191 3190 3192 3190 3191 3190 3189 3188 3187 3186 3185 3182 3180 3179 3177 3176 3174 3172 3170 3169 3166 3163 3160 3157
3174 3176 3177 3179 3180 3182 3184 3186 3187 3188 3189 3191 3191 3191 3192 3192 3191 3191 3192 3192 3192 3192 3191 3191 3192 3190 3189 3188 3188 3188 3187 3184 3183 3180 3177 3175 3173 3171 3170 3168 3166 3164 3159 3156 3151
3176 3178 3179 3181 3184 3185 3187 3188 3189 3190 3191 3195 3193 3193 3193 3192 3193 3192 3192 3194 3193 3193 3192 3192 3191 3191 3191 3190 3189 3187 3185 3182 3177 3177 3175 3174 3172 3168 3166 3165 3164 3160 3157 3153 3147
3178 3180 3181 3183 3185 3187 3189 3189 3190 3191 3193 3198 3195 3195 3193 3194 3195 3194 3194 3193 3193 3193 3193 3193 3191 3191 3189 3188 3187 3187 3183 3177 3174 3173 3173 3171 3173 3162 3163 3161 3160 3157 3153 3148 3142
3179 3181 3182 3184 3186 3188 3189 3190 3191 3194 3194 3196 3196 3196 3196 3195 3195 3195 3195 3194 3193 3192 3192 3192 3191 3191 3189 3187 3185 3184 3180 3174 3173 3172 3171 3167 3168 3161 3160 3159 3157 3155 3149 3144 3139
3180 3182 3183 3185 3187 3188 3190 3191 3193 3191 3197 3198 3196 3196 3196 3196 3196 3195 3195 3194 3193 3193 3192 3192 3191 3190 3190 3187 3185 3184 3178 3175 3175 3172 3169 3168 3168 3160 3158 3157 3154 3151 3146 3140 3131
3180 3182 3184 3185 3187 3189 3190 3192 3191 3194 3194 3196 3196 3196 3197 3197 3197 3196 3196 3195 3194 3193 3192 3191 3190 3190 3188 3187 3185 3182 3181 3181 3182 3174 3170 3166 3163 3160 3157 3155 3152 3148 3143 3136 3128
3180 3182 3184 3186 3188 3189 3191 3191 3191 3193 3195 3196 3197 3197 3197 3197 3197 3196 3196 3195 3194 3193 3193 3190 3189 3188 3187 3186 3185 3183 3182 3181 3177 3173 3170 3161 3160 3156 3156 3154 3152 3145 3140 3132 3123
3180 3183 3184 3187 3188 3190 3191 3191 3192 3193 3194 3195 3196 3197 3197 3197 3197 3195 3195 3196 3194 3193 3192 3190 3189 3188 3187 3185 3184 3183 3183 3180 3179 3175 3168 3159 3157 3155 3155 3151 3147 3141 3135 3127 3119
3180 3182 3185 3187 3189 3191 3191 3192 3193 3194 3195 3196 3196 3196 3196 3196 3195 3195 3195 3195 3194 3193 3191 3190 3190 3189 3185 3184 3182 3181 3179 3178 3178 3178 3176 3167 3156 3154 3151 3147 3141 3137 3130 3122 3114
3179 3182 3184 3187 3190 3190 3191 3192 3193 3194 3195 3196 3196 3196 3196 3195 3195 3195 3194 3194 3193 3192 3190 3189 3188 3185 3184 3182 3180 3179 3177 3176 3176 3176 3172 3169 3156 3152 3148 3145 3139 3133 3127 3119 3111
3177 3181 3184 3186 3188 3190 3191 3193 3194 3195 3195 3195 3196 3196 3196 3195 3196 3194 3193 3193 3192 3191 3190 3189 3187 3185 3181 3182 3179 3176 3174 3173 3172 3169 3166 3167 3156 3152 3146 3143 3137 3130 3122 3114 3105
3177 3180 3182 3185 3187 3189 3191 3192 3194 3194 3195 3195 3195 3195 3195 3194 3194 3193 3192 3192 3191 3190 3189 3188 3186 3185 3184 3181 3177 3173 3170 3167 3166 3164 3159 3155 3152 3151 3144 3137 3130 3123 3114 3106 3101
3174 3177 3181 3182 3186 3188 3190 3192 3193 3194 3195 3194 3194 3194 3194 3193 3192 3191 3191 3190 3190 3188 3187 3186 3184 3181 3179 3175 3171 3168 3166 3163 3161 3160 3156 3150 3145 3143 3137 3132 3127 3120 3111 3105 3095
3172 3176 3180 3182 3184 3187 3189 3191 3193 3193 3195 3194 3193 3193 3193 3193 3192 3190 3190 3189 3188 3187 3185 3184 3181 3177 3173 3170 3167 3162 3161 3160 3156 3153 3149 3146 3141 3138 3135 3129 3123 3114 3106 3099 3091
3169 3175 3179 3181 3183 3185 3188 3190 3191 3192 3193 3193 3193 3192 3191 3191 3190 3189 3188 3187 3185 3184 3183 3181 3178 3175 3169 3167 3162 3157 3157 3154 3152 3149 3145 3141 3138 3132 3129 3124 3117 3109 3102 3095 3087
Wind_Speed
12 13 13 13 12 12 12 11 9 9 10 9 9 9 10 11 10 10 9 10 9 10 11 11 11 13 11 7 7 7 15 13 10 8 8 4 4 2 4 4 1 5 4 4 5
11 12 13 11 9 10 11 10 10 9 9 9 9 9 10 11 11 10 11 11 10 9 9 9 9 9 8 8 9 9 13 13 10 8 7 4 8 8 5 5 7 2 3 6 9
12 11 11 9 6 8 9 9 9 9 8 8 8 9 11 13 11 11 12 11 11 10 10 9 9 9 8 10 13 12 15 11 8 6 7 7 9 5 2 5 3 1 3 7 10
12 11 9 6 4 5 6 7 8 8 9 8 7 7 7 6 5 11 11 11 11 11 11 11 11 9 10 12 10 12 12 6 6 3 4 4 8 5 3 3 3 5 7 10 14
11 9 7 5 3 4 5 5 7 9 9 9 10 11 10 9 13 11 10 9 10 10 9 9 10 10 11 12 9 8 9 6 4 0 4 4 6 7 3 3 5 8 11 15 18
9 7 5 5 4 4 4 6 9 9 10 9 9 9 9 2 11 10 10 10 9 9 9 7 7 9 10 8 5 5 6 7 8 3 3 5 9 7 6 8 10 13 16 19 22
8 7 7 6 5 5 6 7 10 11 11 11 12 11 9 14 10 10 10 8 8 7 6 5 5 5 7 8 9 9 3 7 5 2 6 9 7 8 9 10 13 17 21 22 24
8 7 7 6 6 7 8 10 13 14 14 15 17 16 14 12 10 8 6 7 8 9 9 9 8 9 8 8 12 10 4 3 1 4 7 12 14 11 12 15 17 19 21 23 25
8 8 8 8 8 9 11 14 14 17 18 17 17 16 17 15 13 10 8 9 11 11 10 10 9 7 12 11 9 8 5 3 4 4 8 11 11 13 16 18 19 20 22 24 24
11 11 11 10 11 14 14 14 17 16 16 15 13 14 14 13 12 12 11 10 10 10 9 9 9 9 8 7 3 2 4 5 7 9 10 13 15 15 17 19 19 20 21 24 27
12 12 13 13 14 15 16 15 11 14 15 19 16 17 14 13 10 10 9 7 8 6 6 8 6 8 7 5 2 1 3 5 9 12 13 14 15 16 17 18 19 20 23 24 27
12 12 14 16 15 17 17 17 19 17 20 17 15 15 12 11 10 8 8 7 7 6 5 7 8 10 8 7 2 3 3 7 10 14 16 14 14 15 16 18 19 20 23 26 28
12 12 15 16 16 17 20 20 18 16 18 16 12 8 9 10 6 7 9 7 5 3 8 6 8 11 10 8 2 3 12 16 17 18 16 14 13 15 15 16 17 20 23 26 33
13 12 14 14 18 21 21 14 8 7 6 10 6 11 6 8 8 9 7 5 5 4 3 5 7 7 7 5 5 5 15 22 18 10 7 8 4 12 15 16 17 20 25 29 36
12 12 14 15 21 17 9 4 2 2 3 3 9 9 11 5 5 8 6 5 6 6 4 3 4 3 10 11 9 11 19 21 8 6 8 12 8 8 13 15 17 21 26 32 39
11 11 12 14 15 8 2 2 1 1 3 4 7 6 8 7 8 10 8 6 5 5 4 3 3 5 12 13 8 15 22 10 6 3 4 4 8 7 9 11 15 21 29 37 41
11 11 11 12 11 8 5 1 1 3 6 4 5 5 4 6 6 6 7 6 6 0 2 1 3 6 9 13 7 12 23 5 3 2 3 4 6 13 11 11 18 26 33 39 43
11 9 9 10 9 8 5 2 2 6 4 6 5 5 5 3 5 4 4 8 11 8 1 3 2 7 11 14 12 14 18 5 4 3 7 17 7 6 11 13 20 29 36 40 44
12 10 9 9 8 6 4 3 3 6 5 4 3 3 4 5 4 3 4 7 9 10 5 6 2 5 11 13 12 9 13 8 5 10 4 4 7 11 9 13 23 34 40 41 45
13 11 10 10 8 5 3 4 4 5 5 3 2 2 3 4 3 3 5 4 8 11 9 8 3 5 11 9 10 10 12 7 8 5 6 5 9 6 9 18 32 41 42 43 48
15 13 12 11 9 5 2 3 5 5 4 2 1 1 2 4 5 3 4 4 7 11 8 9 5 6 10 7 9 10 8 6 7 3 3 5 8 9 14 27 39 44 39 45 50
17 15 14 13 10 6 2 3 3 3 2 2 2 2 3 5 5 2 3 5 7 11 9 9 4 10 11 9 8 12 13 11 5 2 10 8 9 11 19 33 42 36 42 47 45
18 16 15 14 11 7 4 2 2 2 0 2 3 3 4 4 4 4 6 9 7 10 8 10 6 8 8 7 13 14 16 16 15 9 13 4 9 19 28 37 34 38 44 46 42
20 17 16 15 12 9 5 3 2 2 2 4 4 4 4 5 5 5 8 6 10 10 8 10 9 9 9 17 21 22 22 21 14 9 9 20 23 25 34 33 35 41 46 43 40
23 19 17 17 15 10 7 3 3 2 4 5 4 4 5 5 8 5 8 10 9 8 9 11 11 16 17 22 23 21 19 18 19 19 16 20 28 30 29 34 37 43 43 39 41
26 20 17 11 16 12 9 7 5 4 5 6 5 6 6 7 8 9 9 10 8 9 12 11 10 19 27 15 18 25 17 14 18 18 19 22 28 27 28 31 37 42 39 40 41
27 22 16 16 11 12 11 8 6 5 6 6 6 6 7 9 11 10 10 12 12 12 12 12 13 18 9 18 24 12 13 14 13 15 19 24 24 24 30 33 39 41 38 40 40
Wind_Direction
117 111 106 102 96 85 82 86 89 94 101 109 107 99 93 89 86 88 94 96 99 102 104 104 130 173 176 175 139 131 129 112 97 83 76 38 338 355 39 41 143 247 218 252 280
132 129 126 119 101 87 79 78 77 86 99 107 106 94 95 93 90 96 97 94 94 99 107 113 117 123 145 140 128 134 117 97 85 70 49 44 13 4 63 5 335 288 300 312 312
141 140 137 128 114 90 72 71 74 79 92 98 102 101 101 95 93 98 96 97 99 100 105 112 117 124 129 124 121 113 106 106 95 55 45 21 7 24 336 301 328 329 290 288 291
141 141 142 123 109 97 74 66 71 77 89 92 99 128 118 108 101 99 98 101 104 103 103 104 102 114 125 120 122 127 114 113 88 37 14 343 4 333 255 265 223 255 278 292 298
142 147 137 127 116 96 87 77 79 84 92 94 101 106 101 103 115 102 98 95 93 92 98 98 99 103 109 122 126 120 127 144 101 9 286 316 318 317 267 280 283 289 294 296 299
150 149 141 129 115 116 97 84 87 95 98 107 109 98 96 118 98 97 94 91 92 91 86 86 86 98 113 133 139 135 140 143 122 179 304 307 311 305 294 288 286 288 287 291 298
149 143 128 119 127 119 102 101 102 99 100 102 92 84 76 94 94 92 92 88 80 72 70 78 82 115 130 116 108 108 152 131 144 234 291 291 286 292 289 280 278 285 293 298 302
142 134 123 131 130 124 117 116 110 104 104 95 86 76 87 89 89 84 86 78 75 81 85 79 90 109 133 128 123 126 133 193 257 270 267 278 285 283 279 279 284 290 296 301 304
128 122 124 130 130 125 124 126 117 110 101 93 87 88 83 84 82 86 83 92 90 90 80 62 69 113 124 153 155 197 223 219 228 250 259 271 274 270 277 279 287 292 295 299 306
115 113 116 125 134 131 127 125 110 108 102 90 83 84 85 86 82 82 81 86 91 89 57 72 82 98 156 174 220 212 232 261 257 267 270 275 275 270 271 278 285 291 296 303 307
109 111 117 124 130 126 121 118 114 111 100 92 92 91 86 81 76 72 64 86 91 82 71 78 118 96 93 90 81 266 282 298 294 289 289 291 289 277 270 274 283 289 297 305 313
110 115 124 125 126 123 118 115 111 106 97 91 88 80 78 83 74 73 71 85 78 60 76 82 81 77 59 39 56 105 343 315 305 292 288 282 269 257 262 274 285 296 306 312 317
116 121 131 127 125 122 119 116 110 97 84 80 77 75 77 79 86 82 77 74 59 60 72 73 70 51 35 21 10 337 349 334 310 297 292 285 260 258 264 275 293 305 312 321 325
125 125 134 134 135 128 123 115 100 80 84 56 58 44 86 92 81 82 80 62 46 65 74 58 66 43 24 12 13 311 340 329 314 299 280 252 280 260 262 274 289 297 307 321 334
133 129 133 144 142 135 118 102 90 6 64 45 58 73 66 92 106 73 65 41 29 48 47 95 67 30 17 10 6 355 348 326 320 269 272 256 263 271 257 273 285 303 322 334 337
145 135 134 151 162 172 154 98 46 52 86 86 81 73 66 79 89 82 59 38 27 53 71 75 26 14 17 5 359 357 349 323 312 268 243 265 224 264 263 281 302 325 333 334 334
161 147 138 141 152 155 148 103 17 67 139 114 103 75 71 71 71 74 55 44 51 2 29 319 339 4 1 6 355 358 10 346 350 313 266 268 258 269 276 297 321 329 333 338 340
173 162 148 141 144 141 124 81 81 122 111 125 116 66 55 60 62 54 43 38 40 35 351 5 314 351 351 3 357 8 25 67 301 291 303 287 244 288 283 308 329 334 340 338 336
182 175 164 152 140 127 103 63 106 125 129 128 93 46 41 42 43 26 4 27 28 21 16 355 319 331 350 352 6 353 7 7 288 266 292 260 276 303 291 319 330 336 336 332 333
189 186 174 166 150 130 91 69 115 122 127 124 53 43 32 25 13 13 8 354 6 9 6 353 335 314 335 342 347 349 348 342 353 342 306 277 291 269 310 320 331 335 334 333 335
191 189 181 178 174 155 96 77 126 126 115 99 43 359 6 2 346 350 2 347 346 356 353 351 342 323 324 326 328 328 331 341 328 222 257 305 308 295 307 326 335 331 331 334 336
192 190 187 186 182 182 168 136 122 134 103 46 342 344 343 345 337 338 334 341 331 345 349 352 313 315 315 320 317 318 319 317 325 273 238 261 287 288 314 330 327 330 330 334 337
193 196 193 188 186 190 189 167 155 156 273 336 328 324 327 333 338 331 329 330 335 336 339 344 325 319 316 324 320 313 313 312 317 277 247 211 300 311 317 323 326 329 333 337 339
195 198 197 194 194 197 201 218 203 216 282 313 317 321 320 321 331 310 316 321 326 326 324 331 319 309 287 301 305 305 307 305 295 268 275 279 292 306 315 324 334 334 336 338 340
199 203 199 206 201 203 207 207 224 254 284 308 316 315 311 314 328 334 324 323 322 317 322 327 318 316 312 307 304 301 307 304 294 294 281 300 304 316 324 330 336 336 336 339 343
204 205 203 204 205 210 214 216 232 262 295 302 303 310 303 306 318 318 320 323 314 310 317 320 304 319 319 314 310 308 307 307 298 294 290 299 311 321 328 331 335 337 340 343 347
205 208 209 211 203 208 219 222 237 264 290 296 299 301 299 305 312 312 313 311 301 301 313 313 313 321 301 315 311 303 334 323 310 305 302 307 321 322 331 334 339 339 342 345 346